{"data":{"norad_id":58212,"intl_designator":"2023-170G","name":"STARLINK-30837","alt_names":[],"object_type":"PAYLOAD","status":"ACTIVE","operator":null,"country":"US","launch_date":"2023-11-03","launch_site_code":"AFETR","launch_vehicle":null,"mission":null,"orbit_class":"UNKNOWN","rcs_meters":null,"size_class":null,"mass_kg":null,"dimensions":null,"purposes":["comms"],"wikipedia_slug":null,"has_3d_model":false,"image_url":null,"decayed_at":null,"tle_current":{"epoch":"2026-05-24T23:45:45.688032Z","epoch_age_seconds":72081,"freshness":"FRESH","line1":"1 58212U 23170G   26144.99011213  .00000242  00000+0  18310-4 0  9998","line2":"2 58212  43.0028 123.7265 0001126 297.2577  62.8160 15.27577407141961","mean_motion":15.27577407,"eccentricity":0.0001126,"inclination_deg":43.0028,"raan_deg":123.7265,"arg_perigee_deg":297.2577,"mean_anomaly_deg":62.816,"bstar":1.831e-5,"rev_number":14196,"period_min":94.266908727592,"perigee_km":482.28428999678,"apogee_km":483.82943085415,"semimajor_km":6861.1938604255,"source":"CELESTRAK","updated_at":"2026-05-25T13:38:18.575112Z"}}}